sat.trackr.live / text

‹ back to catalog

BEIDOU-3 IGSO-2 (C39)

NORAD 44337 · 2019-035A

PAYLOAD ACTIVE UNKNOWN

§ Identity

Operator
Country
PRC
Launch date
2019-06-24
Launch site
XICLF
Launch vehicle
Mass (kg)
RCS (m²)

Purposes: comms, nav

External: N2YO · Heavens-Above · Gunter

§ Orbital elements

Epoch: 2026-09-17T17:16:03.319104Z

Period
1,436.09 min
Inclination
55.2501°
Eccentricity
0.0038481
Mean motion
1.00272052 rev/d
Perigee alt
35,624.3 km
Apogee alt
35,948.8 km
Semi-major
42,164.7 km
B*
0.0000e+0
RAAN
158.0504°
Arg perigee
210.6001°
Mean anomaly
6.7827°
Rev number
2,659

§ Raw data

BEIDOU-3 IGSO-2 (C39)1 44337U 19035A   26260.71948286 -.00000147  00000+0  00000+0 0  99912 44337  55.2501 158.0504 0038481 210.6001   6.7827  1.00272052 26599

JSON: /api/v1/satellites/44337 · /tle

For live sub-satellite position, see the globe view (requires WebGL).

§ Visibility from observer

Set your observer location to see the next 7 days of passes ≥ 10°. The values pass through the URL so the page stays shareable.

No JS? Fill the form by hand. The geolocation button needs JavaScript.